Iron Mountain, MI

6:24 PM CDT on June 27, 2017 (GMT -0500)
Ford

Weather History for KIMT - October, 2011

Change the Weather History Date:

Friday, October 7, 2011

  Actual Average Record
Temperature  
Mean Temperature 60 °F -  
Max Temperature 79 °F 57 °F 86 °F (2007)
Min Temperature 42 °F 36 °F 20 °F (1954)
Degree Days  
Heating Degree Days 4    
Growing Degree Days 10 (Base 50)    
Moisture  
Dew Point 48 °F    
Average Humidity 84    
Maximum Humidity 100    
Minimum Humidity 35    
Precipitation  
Precipitation 0.00 in - - ()
Sea Level Pressure  
Sea Level Pressure 30.19 in    
Wind  
Wind Speed 3 mph (SSE)    
Max Wind Speed 22 mph    
Max Gust Speed 31 mph    
Visibility 4 miles    
Events Fog    
Averages and records for this station are not official NWS values.
T = Trace of Precipitation, MM = Missing Value Source: NWS Daily Summary

Daily Weather History Graph

Daily Weather History Graph

Search for Another Location

Airport or City:

Trip Planner

Search our weather history database for the weather conditions in past years. The results will help you decide how hot, cold, wet, or windy it might be!

Date:

Astronomy

Oct. 07, 2011 Rise Set
Actual Time 6:58 AM CDT 6:21 PM CDT
Civil Twilight 6:28 AM CDT 6:51 PM CDT
Nautical Twilight 5:53 AM CDT 7:25 PM CDT
Astronomical Twilight 5:19 AM CDT 8:00 PM CDT
Moon 4:14 PM CDT (10/7) 2:34 AM CDT (10/7)
Length of Visible Light 12h 22m
Length of Day
11h 23m
Waxing Gibbous, 83% of the Moon is Illuminated
Oct 7
Waxing Gibbous
Oct 11
Full
Oct 19
Last Quarter
Oct 26
New
Nov 2
First Quarter

Hourly Weather History & Observations

Time (CDT) Temp. Windchill Dew Point Humidity Pressure Visibility Wind Dir Wind Speed Gust Speed Precip Events Conditions
12:54 AM 50.0 °F - 48.0 °F 93% 30.20 in 5.0 mi South 3.5 mph - N/A   Clear
1:32 AM 50.0 °F - 48.2 °F 94% 30.21 in 2.5 mi Calm Calm - N/A   Clear
1:54 AM 46.9 °F - 46.0 °F 97% 30.22 in 3.0 mi Calm Calm - N/A   Clear
2:10 AM 48.2 °F - 46.4 °F 93% 30.21 in 1.5 mi Calm Calm - N/A   Partly Cloudy
2:12 AM 48.2 °F - 46.4 °F 93% 30.21 in 0.8 mi Calm Calm - N/A   Mist
2:27 AM 48.2 °F - 46.4 °F 93% 30.22 in 0.2 mi Calm Calm - N/A Fog Fog
2:54 AM 46.0 °F - 46.0 °F 100% 30.22 in 0.2 mi Calm Calm - N/A Fog Fog
2:58 AM 46.4 °F - 46.4 °F 100% 30.21 in 1.2 mi Calm Calm - N/A   Scattered Clouds
3:07 AM 46.4 °F - 46.4 °F 100% 30.21 in 0.8 mi Calm Calm - N/A   Mist
3:19 AM 44.6 °F - 44.6 °F 100% 30.21 in 1.0 mi Calm Calm - N/A   Clear
3:36 AM 44.6 °F - 44.6 °F 100% 30.21 in 0.5 mi Calm Calm - N/A Fog Fog
3:54 AM 45.0 °F - 43.0 °F 93% 30.22 in 0.8 mi Calm Calm - N/A   Clear
4:03 AM 44.6 °F - 44.6 °F 100% 30.21 in 1.8 mi Calm Calm - N/A   Clear
4:22 AM 42.8 °F - 42.8 °F 100% 30.21 in 0.2 mi Calm Calm - N/A Fog Fog
4:34 AM 42.8 °F 41.1 °F 42.8 °F 100% 30.21 in 1.0 mi South 3.5 mph - N/A   Clear
4:54 AM 43.0 °F - 43.0 °F 100% 30.22 in 1.2 mi Calm Calm - N/A   Clear
6:18 AM 44.6 °F - 44.6 °F 100% 30.23 in 1.0 mi Calm Calm - N/A   Clear
6:27 AM 42.8 °F - 42.8 °F 100% 30.23 in 0.2 mi Calm Calm - N/A Fog Fog
6:41 AM 42.8 °F - 41.0 °F 93% 30.23 in 0.8 mi Calm Calm - N/A   Clear
6:54 AM 43.0 °F 41.3 °F 42.1 °F 97% 30.25 in 0.2 mi SSE 3.5 mph - N/A Fog Fog
7:08 AM 44.6 °F 43.1 °F 44.6 °F 100% 30.23 in 0.8 mi SSE 3.5 mph - N/A   Clear
7:44 AM 48.2 °F - 48.2 °F 100% 30.23 in 1.0 mi SSE 3.5 mph - N/A   Clear
7:54 AM 48.9 °F - 48.0 °F 97% 30.24 in 1.0 mi SSE 3.5 mph - N/A   Clear
8:34 AM 51.8 °F - 50.0 °F 94% 30.22 in 2.0 mi SE 4.6 mph - N/A   Clear
8:54 AM 54.0 °F - 51.1 °F 90% 30.24 in 2.5 mi SE 4.6 mph - N/A   Clear
9:04 AM 55.4 °F - 51.8 °F 88% 30.22 in 3.0 mi SE 4.6 mph - N/A   Clear
9:54 AM 62.1 °F - 53.1 °F 72% 30.23 in 6.0 mi SSE 6.9 mph - N/A   Haze
10:54 AM 70.0 °F - 53.1 °F 55% 30.20 in 10.0 mi South 11.5 mph - N/A   Clear
12:54 PM 75.9 °F - 52.0 °F 43% 30.16 in 10.0 mi South 21.9 mph 27.6 mph N/A   Clear
1:54 PM 77.0 °F - 51.1 °F 40% 30.14 in 10.0 mi SSW 15.0 mph 29.9 mph N/A   Clear
2:54 PM 79.0 °F - 48.9 °F 35% 30.13 in 10.0 mi South 16.1 mph 31.1 mph N/A   Clear
4:54 PM 75.0 °F - 51.1 °F 43% 30.12 in 10.0 mi South 12.7 mph 23.0 mph N/A   Clear
5:54 PM 73.9 °F - 51.1 °F 45% 30.11 in 10.0 mi SSE 11.5 mph 20.7 mph N/A   Clear
6:54 PM 69.1 °F - 55.9 °F 63% 30.11 in 10.0 mi SSE 11.5 mph - N/A   Clear
7:54 PM 66.9 °F - 55.0 °F 66% 30.11 in 10.0 mi SSE 8.1 mph - N/A   Clear
9:54 PM 64.9 °F - 54.0 °F 68% 30.11 in 10.0 mi SSE 8.1 mph - N/A   Clear
10:54 PM 64.9 °F - 54.0 °F 68% 30.09 in 10.0 mi SSE 10.4 mph - N/A   Clear
11:54 PM 64.0 °F - 54.0 °F 70% 30.09 in 10.0 mi South 8.1 mph - N/A   Clear